Aspen, CO

6:22 PM MDT on April 28, 2017 (GMT -0600)
Aspen-Pitkin County / Sardy Field

Weather History for KASE - November, 2014

Change the Weather History Date:

Monday, November 24, 2014

  Actual Average Record
Temperature  
Mean Temperature 20 °F 25 °F  
Max Temperature 25 °F 37 °F 58 °F (1990)
Min Temperature 15 °F 14 °F -11 °F (2010)
Degree Days  
Heating Degree Days 45 40  
Month to date heating degree days 843 824  
Since 1 July heating degree days 1789 2079  
Cooling Degree Days 0 0  
Month to date cooling degree days 0 0  
Year to date cooling degree days 56 39  
Moisture  
Dew Point 14 °F    
Average Humidity 83    
Maximum Humidity 92    
Minimum Humidity 74    
Precipitation  
Precipitation 0.06 in 0.05 in 0.35 in (1988)
Month to date precipitation 1.07 1.16  
Year to date precipitation 13.38 15.91  
Sea Level Pressure  
Sea Level Pressure 30.14 in    
Wind  
Wind Speed 4 mph (NNW)    
Max Wind Speed 17 mph    
Max Gust Speed 24 mph    
Visibility 4 miles    
Events Fog , Snow    
T = Trace of Precipitation, MM = Missing Value Source: NWS Daily Summary

Daily Weather History Graph

Daily Weather History Graph

Search for Another Location

Airport or City:

Trip Planner

Search our weather history database for the weather conditions in past years. The results will help you decide how hot, cold, wet, or windy it might be!

Date:

Astronomy

Nov. 24, 2014 Rise Set
Actual Time 7:00 AM MST 4:47 PM MST
Civil Twilight 6:31 AM MST 5:16 PM MST
Nautical Twilight 5:58 AM MST 5:49 PM MST
Astronomical Twilight 5:26 AM MST 6:21 PM MST
Moon 8:56 AM MST (11/24) 7:11 PM MST (11/24)
Length of Visible Light 10h 44m
Length of Day
9h 46m
Waxing Crescent, 6% of the Moon is Illuminated
Nov 24
Waxing Crescent
Nov 29
First Quarter
Dec 6
Full
Dec 14
Last Quarter
Dec 21
New

Hourly Weather History & Observations

Time (MST) Temp. Windchill Dew Point Humidity Pressure Visibility Wind Dir Wind Speed Gust Speed Precip Events Conditions
12:53 AM 18.0 °F - 10.0 °F 71% 30.07 in 7.0 mi Calm Calm - 0.00 in Snow Light Snow
1:30 AM 17.1 °F 11.7 °F 12.0 °F 81% 30.04 in 3.0 mi NW 3.5 mph - 0.00 in Snow Light Snow
1:37 AM 17.1 °F - 12.9 °F 84% 30.04 in 2.0 mi Calm Calm - 0.00 in Snow Light Snow
1:44 AM 17.1 °F - 12.9 °F 84% 30.04 in 1.8 mi Calm Calm - 0.00 in Snow Light Snow
1:53 AM 17.1 °F - 12.9 °F 84% 30.09 in 2.0 mi Calm Calm - 0.00 in Snow Light Snow
2:10 AM 17.1 °F - 12.9 °F 84% 30.05 in 3.0 mi Calm Calm - 0.00 in Snow Light Snow
2:25 AM 17.1 °F - 12.9 °F 84% 30.04 in 7.0 mi Calm Calm - 0.00 in Snow Light Snow
2:53 AM 16.0 °F - 12.9 °F 88% 30.09 in 9.0 mi Calm Calm - 0.00 in   Overcast
3:53 AM 17.1 °F - 12.9 °F 84% 30.08 in 3.0 mi Calm Calm - 0.00 in Snow Light Snow
4:00 AM 17.1 °F - 14.0 °F 88% 30.02 in 2.5 mi Calm Calm - 0.00 in Snow Light Snow
4:07 AM 17.1 °F - 12.9 °F 84% 30.02 in 1.8 mi Calm Calm - 0.00 in Snow Light Snow
4:53 AM 16.0 °F - 12.9 °F 88% 30.09 in 2.0 mi Calm Calm - 0.01 in Snow Light Snow
5:05 AM 17.1 °F - 12.9 °F 84% 30.02 in 3.0 mi Calm Calm - 0.00 in Snow Light Snow
5:18 AM 17.1 °F - 14.0 °F 88% 30.01 in 2.5 mi Calm Calm - 0.00 in Snow Light Snow
5:53 AM 17.1 °F - 12.9 °F 84% 30.09 in 2.0 mi Calm Calm - 0.01 in Snow Light Snow
6:04 AM 17.1 °F - 12.9 °F 84% 30.02 in 2.0 mi Calm Calm - 0.00 in Snow Light Snow
6:14 AM 17.1 °F - 14.0 °F 88% 30.02 in 1.8 mi Calm Calm - 0.00 in Snow Light Snow
6:53 AM 17.1 °F - 14.0 °F 88% 30.10 in 2.0 mi Calm Calm - 0.01 in Snow Light Snow
7:19 AM 17.1 °F - 15.1 °F 92% 30.03 in 2.0 mi Calm Calm - 0.00 in Snow Light Snow
7:53 AM 18.0 °F - 15.1 °F 88% 30.11 in 2.0 mi Calm Calm - 0.01 in Snow Light Snow
8:53 AM 18.0 °F - 14.0 °F 84% 30.14 in 1.5 mi Calm Calm - 0.01 in Snow Light Snow
9:23 AM 19.0 °F - 15.1 °F 85% 30.05 in 3.0 mi Calm Calm - 0.00 in Snow Light Snow
9:53 AM 19.0 °F 12.3 °F 14.0 °F 81% 30.14 in 3.0 mi NNW 4.6 mph - 0.01 in Snow Light Snow
10:53 AM 19.9 °F 12.1 °F 15.1 °F 81% 30.14 in 2.0 mi NNW 5.8 mph - 0.00 in Snow Light Snow
11:05 AM 19.9 °F 12.1 °F 16.0 °F 85% 30.07 in 3.0 mi North 5.8 mph - 0.00 in Snow Light Snow
11:53 AM 21.0 °F 12.4 °F 16.0 °F 81% 30.12 in 2.0 mi North 6.9 mph - 0.00 in Snow Light Snow
12:19 PM 21.9 °F 11.7 °F 17.1 °F 82% 30.07 in 7.0 mi North 9.2 mph - 0.00 in Snow Light Snow
12:29 PM 21.9 °F 9.8 °F 16.0 °F 78% 30.07 in 7.0 mi NNW 12.7 mph - 0.00 in   Overcast
12:53 PM 23.0 °F 11.7 °F 16.0 °F 74% 30.13 in 7.0 mi NNW 11.5 mph 19.6 mph 0.00 in   Overcast
1:46 PM 23.0 °F 9.6 °F 14.0 °F 68% 30.09 in 3.0 mi NNW 16.1 mph 23.0 mph 0.00 in Snow Light Snow
1:49 PM 23.0 °F 12.4 °F 14.0 °F 68% 30.09 in 1.8 mi NNW 10.4 mph 23.0 mph 0.00 in Snow Light Snow
1:53 PM 23.0 °F 10.6 °F 15.1 °F 72% 30.15 in 2.0 mi North 13.8 mph 23.0 mph 0.00 in Snow Light Snow
1:55 PM 23.0 °F 11.7 °F 15.1 °F 72% 30.09 in 1.5 mi North 11.5 mph 21.9 mph 0.00 in Snow Light Snow
2:27 PM 23.0 °F 11.7 °F 15.1 °F 72% 30.11 in 6.0 mi NW 11.5 mph 21.9 mph 0.00 in Snow Light Snow
2:53 PM 21.9 °F 10.4 °F 15.1 °F 75% 30.20 in 4.0 mi NW 11.5 mph 21.9 mph 0.00 in Snow Light Snow
2:57 PM 21.9 °F 11.7 °F 15.1 °F 75% 30.13 in 4.0 mi NNW 9.2 mph 19.6 mph 0.00 in Snow Light Snow
3:53 PM 23.0 °F 11.1 °F 14.0 °F 68% 30.22 in 3.0 mi NNW 12.7 mph 21.9 mph 0.00 in   Haze
4:32 PM 21.0 °F 9.9 °F 17.1 °F 85% 30.18 in 1.0 mi North 10.4 mph - 0.00 in Snow Light Snow
4:36 PM 21.0 °F 11.4 °F 17.1 °F 85% 30.18 in 0.5 mi NNW 8.1 mph - 0.00 in Fog , Snow Light Snow
4:38 PM 21.0 °F 11.4 °F 17.1 °F 85% 30.18 in 5.0 mi North 8.1 mph - 0.00 in Snow Light Snow
4:53 PM 21.0 °F 10.6 °F 16.0 °F 81% 30.28 in 7.0 mi WNW 9.2 mph 17.3 mph 0.00 in   Overcast
5:50 PM 19.4 °F 11.5 °F 15.8 °F 86% 30.22 in 2.5 mi NNE 5.8 mph - 0.00 in Snow Light Snow
5:53 PM 19.9 °F 11.1 °F 16.0 °F 85% 30.31 in 2.0 mi North 6.9 mph - 0.00 in Snow Light Snow
6:53 PM 19.9 °F 12.1 °F 16.0 °F 85% 30.33 in 10.0 mi North 5.8 mph - 0.00 in   Overcast
7:53 PM 19.0 °F - 17.1 °F 92% 30.34 in 10.0 mi Calm Calm - 0.00 in   Overcast
8:53 PM 18.0 °F - 15.1 °F 88% 30.37 in 10.0 mi Calm Calm - N/A   Overcast
9:53 PM 17.1 °F - 14.0 °F 88% 30.38 in 10.0 mi Calm Calm - N/A   Overcast
10:53 PM 16.0 °F - 12.0 °F 84% 30.38 in 10.0 mi Calm Calm - 0.00 in   Overcast
11:53 PM 16.0 °F 8.8 °F 12.0 °F 84% 30.39 in 9.0 mi South 4.6 mph - 0.00 in   Overcast